Home > Weather > Sydney > Past weeks

Flag for Australia Weather for the Past 2 Weeks in Sydney, New South Wales, Australia

Now
77 °F

Clear.


Feels Like: 79 °F
Forecast: 66 / 82 °F
Wind: 18 mph from Northeast

Location: Sydney Airport

Current Time: Feb 10, 2016 at 10:09:10 PM

Latest Report: Feb 10, 2016 at 9:30 PM


Visibility: 10 mi

Pressure: 29.92 "Hg

Humidity: 61%

Dew point: 63 °F

Location of SydneyLocation

Historic Weather in Sydney — Graph

°F

Sydney Temperature Yesterday

Maximum temperature yesterday: 79 °F (at 3:30 PM)
Minimum temperature yesterday: 72 °F (at 5:00 AM)
Average temperature yesterday: 74 °F

High & Low Weather Summary for the Past Weeks

 TemperatureHumidityPressure
High88 °F (Jan 31, 1:00 PM)100% (Jan 30, 5:30 PM)30.15 "Hg (Jan 30, 5:30 PM)
Low61 °F (Feb 2, 6:00 AM)22% (Jan 31, 1:00 PM)29.53 "Hg (Jan 29, 4:00 PM)
Average74 °F72%29.83 "Hg
* Reported Jan 26 9:00 PM — Feb 10 9:00 PM, Sydney, Weather by CustomWeather, © 2016

Note: Actual official high and low records may vary slightly from our data, if they occured in-between our weather recording intervals... More about our weather records

Advertising

Sydney Weather History for the Previous 24 Hours

 ConditionsComfort  
Time TempWeatherWind HumidityBarometerVisibility
9:00 PM
Wed, Feb 10
77 °FClear.20 mph61%29.92 "Hg10 mi
8:30 PM77 °FPassing clouds.18 mph65%29.92 "HgN/A
8:00 PM77 °FPassing clouds.20 mph65%29.92 "HgN/A
7:30 PM77 °FPassing clouds.22 mph65%29.89 "HgN/A
7:00 PM79 °FSunny.23 mph58%29.89 "Hg10 mi
6:30 PM79 °FSunny.21 mph58%29.86 "Hg10 mi
6:00 PM81 °FSunny.23 mph51%29.86 "Hg10 mi
5:00 PM82 °FSunny.22 mph48%29.86 "Hg10 mi
4:30 PM82 °FSunny.21 mph48%29.86 "Hg10 mi
4:00 PM84 °FSunny.20 mph43%29.89 "Hg10 mi
3:00 PM84 °FSunny.20 mph43%29.89 "Hg10 mi
2:30 PM84 °FSunny.17 mph45%29.92 "Hg10 mi
2:00 PM82 °FSunny.18 mph42%29.92 "Hg10 mi
1:00 PM82 °FPassing clouds.7 mph45%29.95 "HgN/A
12:00 PM84 °FPassing clouds.7 mph43%29.98 "HgN/A
11:30 AM81 °FScattered clouds.7 mph48%29.98 "HgN/A
11:00 AM81 °FScattered clouds.9 mph51%29.98 "HgN/A
10:30 AM79 °FScattered clouds.9 mph54%30.01 "HgN/A
10:00 AM79 °FScattered clouds.9 mph58%30.01 "HgN/A
9:30 AM77 °FScattered clouds.9 mph61%30.01 "HgN/A
8:00 AM72 °FPassing clouds.7 mph78%30.01 "HgN/A
7:30 AM72 °FPassing clouds.7 mph78%30.01 "HgN/A
7:00 AM72 °FPassing clouds.7 mph78%30.01 "HgN/A
6:30 AM70 °FScattered clouds.8 mph83%30.01 "HgN/A
6:00 AM70 °FPassing clouds.7 mph83%30.01 "HgN/A
5:30 AM70 °FPassing clouds.6 mph78%29.98 "HgN/A
5:00 AM70 °FPassing clouds.6 mph83%29.98 "HgN/A
4:30 AM70 °FPassing clouds.7 mph83%29.98 "HgN/A
4:00 AM70 °FPassing clouds.7 mph83%29.98 "HgN/A
3:30 AM70 °FPassing clouds.6 mph83%30.01 "HgN/A
2:30 AM70 °FPassing clouds.7 mph83%30.01 "HgN/A
2:00 AM72 °FPassing clouds.5 mph78%30.04 "HgN/A
1:30 AM72 °FPassing clouds.6 mph83%30.04 "HgN/A
1:00 AM72 °FPassing clouds.No wind78%30.04 "HgN/A
12:00 AM72 °FPassing clouds.3 mph78%30.07 "HgN/A
11:00 PM
Tue, Feb 9
73 °FPassing clouds.6 mph74%30.09 "HgN/A
10:00 PM73 °FPassing clouds.6 mph74%30.09 "HgN/A
Weather by CustomWeather, © 2016

See weather overviewHow to use our weather pages